Weather History for Baker, MT

Change the Weather History Date:

Thursday, February 27, 2014

  Actual Average Record
Temperature  
Mean Temperature 13 °F -  
Max Temperature 28 °F 9 °F 59 °F (2006)
Min Temperature -2 °F 1 °F -14 °F (2001)
Degree Days  
Heating Degree Days 52    
Moisture  
Dew Point 9 °F    
Average Humidity 83    
Maximum Humidity 100    
Minimum Humidity 61    
Precipitation  
Precipitation 0.00 in - - ()
Sea Level Pressure  
Sea Level Pressure 29.81 in    
Wind  
Wind Speed 10 mph (SE)    
Max Wind Speed 17 mph    
Max Gust Speed -    
Visibility 10 miles    
Events      
Averages and records for this station are not official NWS values.
T = Trace of Precipitation, MM = Missing Value Source: NWS Daily Summary

Daily Weather History Graph

Daily Weather History Graph

Search for Another Location

Airport:

Trip Planner

Search our weather history database for the weather conditions in past years. The results will help you decide how hot, cold, wet, or windy it might be!

Date:

Astronomy

Feb. 27, 2014 Rise Set
Actual Time 6:39 AM MST 5:40 PM MST
Civil Twilight 6:09 AM MST 6:10 PM MST
Nautical Twilight 5:34 AM MST 6:45 PM MST
Astronomical Twilight 4:59 AM MST 7:20 PM MST
Moon 5:18 AM MST (2/27) 4:06 PM MST (2/27)
Length of Visible Light 12h 01m
Length of Day
11h 00m
Waning Crescent, 4% of the Moon is Illuminated
Feb 27
Waning Crescent
Mar 1
New
Mar 8
First Quarter
Mar 16
Full
Mar 23
Last Quarter

Hourly Weather History & Observations

Time (MST) Temp. Windchill Dew Point Humidity Pressure Visibility Wind Dir Wind Speed Gust Speed Precip Events Conditions
12:51 AM -2.0 °F -13.9 °F -8.0 °F 76% 30.07 in 10.0 mi ESE 5.8 mph - N/A   Clear
1:51 AM -0.0 °F -13.0 °F -2.0 °F 91% 30.05 in 10.0 mi East 6.9 mph - N/A   Clear
2:51 AM -2.0 °F -17.7 °F -4.0 °F 91% 30.02 in 10.0 mi ESE 9.2 mph - N/A   Clear
3:51 AM -0.9 °F -16.4 °F -2.9 °F 91% 29.99 in 10.0 mi SE 9.2 mph - N/A   Clear
4:51 AM -0.9 °F -16.4 °F -4.0 °F 87% 29.98 in 10.0 mi East 9.2 mph - N/A   Clear
5:51 AM -0.9 °F -18.3 °F -2.9 °F 91% 29.95 in 10.0 mi ESE 11.5 mph - N/A   Clear
6:51 AM -0.0 °F -14.2 °F -2.9 °F 88% 29.93 in 10.0 mi ESE 8.1 mph - N/A   Clear
7:51 AM 5.0 °F -10.8 °F 1.9 °F 87% 29.91 in 10.0 mi SE 11.5 mph - N/A   Clear
8:51 AM 9.0 °F -7.9 °F 3.9 °F 80% 29.90 in 10.0 mi SE 15.0 mph - N/A   Partly Cloudy
9:51 AM 14.0 °F -0.8 °F 6.1 °F 71% 29.87 in 10.0 mi SE 13.8 mph - N/A   Clear
10:51 AM 18.0 °F 3.6 °F 10.9 °F 74% 29.83 in 10.0 mi SE 15.0 mph - N/A   Clear
11:51 AM 21.0 °F 8.1 °F 12.0 °F 68% 29.80 in 10.0 mi SSE 13.8 mph - N/A   Clear
12:51 PM 26.1 °F 14.0 °F 15.1 °F 63% 29.76 in 10.0 mi SE 15.0 mph - N/A   Clear
1:51 PM 28.0 °F 15.7 °F 16.0 °F 61% 29.73 in 10.0 mi SE 17.3 mph - N/A   Clear
2:51 PM 27.0 °F 16.1 °F 17.1 °F 66% 29.71 in 10.0 mi SE 12.7 mph - N/A   Scattered Clouds
3:51 PM 27.0 °F 16.1 °F 18.0 °F 69% 29.69 in 10.0 mi SE 12.7 mph - N/A   Mostly Cloudy
4:51 PM 25.0 °F 13.6 °F 18.0 °F 75% 29.68 in 10.0 mi SE 12.7 mph - N/A   Partly Cloudy
5:51 PM 19.9 °F 7.9 °F 17.1 °F 89% 29.67 in 10.0 mi SE 11.5 mph - N/A   Clear
6:51 PM 19.9 °F 7.9 °F 17.1 °F 89% 29.67 in 10.0 mi SE 11.5 mph - N/A   Clear
7:51 PM 17.1 °F 7.6 °F 16.0 °F 96% 29.65 in 10.0 mi SE 6.9 mph - N/A   Clear
8:51 PM 16.0 °F 4.4 °F 16.0 °F 100% 29.64 in 10.0 mi SSE 9.2 mph - N/A   Overcast
9:51 PM 16.0 °F 10.4 °F 16.0 °F 100% 29.63 in 10.0 mi SE 3.5 mph - N/A   Overcast
10:51 PM 18.0 °F - 18.0 °F 100% 29.62 in 10.0 mi Calm Calm - N/A   Mostly Cloudy
11:51 PM 19.0 °F 10.0 °F 18.0 °F 96% 29.65 in 10.0 mi WNW 6.9 mph - N/A   Overcast